"Sample Date","Sample Time","Sample Value","Units","Flow Rate","Laser Status","Micron Size 0","Counts/Channel 0","Micron Size 1","Counts/Channel 1","Micron Size 2","Counts/Channel 2","Micron Size 3","Counts/Channel 3","Micron Size 4","Counts/Channel 4","Micron Size 5","Counts/Channel 5","Micron Size 6","Counts/Channel 6","Micron Size 7","Counts/Channel 7","Micron Size 8","Counts/Channel 8","Micron Size 9","Counts/Channel 9","Micron Size 10","Counts/Channel 10","Micron Size 11","Counts/Channel 11","Micron Size 12","Counts/Channel 12","Micron Size 13","Counts/Channel 13","Micron Size 14","Counts/Channel 14","Micron Size 15","Counts/Channel 15","Micron Size 16","Counts/Channel 16","Micron Size 17","Counts/Channel 17","Micron Size 18","Counts/Channel 18","Micron Size 19","Counts/Channel 19","Micron Size 20","Counts/Channel 20","Micron Size 21","Counts/Channel 21","Micron Size 22","Counts/Channel 22","Micron Size 23","Counts/Channel 23","Micron Size 24","Counts/Channel 24","Micron Size 25","Counts/Channel 25","Micron Size 26","Counts/Channel 26","Micron Size 27","Counts/Channel 27","Micron Size 28","Counts/Channel 28","Micron Size 29","Counts/Channel 29","Micron Size 30","Counts/Channel 30","Micron Size 31","Counts/Channel 31"
"05/08/07","09:00:05",521234.000,"cf",1.000,1,0.100,323020.000,0.200,140672.000,0.300,30424.000,0.500,17319.000,1.000,9797.000,5.000,2.000
"05/08/07","09:01:05",521449.000,"cf",1.000,1,0.100,322133.000,0.200,141142.000,0.300,31218.000,0.500,17367.000,1.000,9587.000,5.000,2.000
"05/08/07","09:02:05",522463.000,"cf",1.000,1,0.100,322635.000,0.200,141420.000,0.300,30934.000,0.500,17584.000,1.000,9885.000,5.000,5.000
"05/08/07","09:03:05",521547.000,"cf",1.000,1,0.100,322594.000,0.200,140744.000,0.300,30847.000,0.500,17399.000,1.000,9963.000,5.000,0
"05/08/07","09:04:05",525015.000,"cf",1.000,1,0.100,324137.000,0.200,142239.000,0.300,31062.000,0.500,17621.000,1.000,9955.000,5.000,1.000
"05/08/07","09:05:05",527800.000,"cf",1.000,1,0.100,324643.000,0.200,144159.000,0.300,31345.000,0.500,17826.000,1.000,9821.000,5.000,6.000
"05/08/07","09:06:05",532196.000,"cf",1.000,1,0.100,325589.000,0.200,145709.000,0.300,32622.000,0.500,18125.000,1.000,10145.000,5.000,6.000
"05/08/07","09:07:05",537290.000,"cf",1.000,1,0.100,328637.000,0.200,147930.000,0.300,32601.000,0.500,18007.000,1.000,10108.000,5.000,7.000
"05/08/07","09:08:05",539082.000,"cf",1.000,1,0.100,329781.000,0.200,148584.000,0.300,32588.000,0.500,17959.000,1.000,10165.000,5.000,5.000
"05/08/07","09:09:05",542341.000,"cf",1.000,1,0.100,331280.000,0.200,149761.000,0.300,32978.000,0.500,18097.000,1.000,10220.000,5.000,5.000
"05/08/07","09:10:05",543216.000,"cf",1.000,1,0.100,332003.000,0.200,149296.000,0.300,33267.000,0.500,18356.000,1.000,10287.000,5.000,7.000
"05/08/07","09:11:05",544622.000,"cf",1.000,1,0.100,331130.000,0.200,152066.000,0.300,33294.000,0.500,18027.000,1.000,10100.000,5.000,5.000
"05/08/07","09:12:05",544143.000,"cf",1.000,1,0.100,329314.000,0.200,152677.000,0.300,33953.000,0.500,17861.000,1.000,10335.000,5.000,3.000
"05/08/07","09:13:05",544200.000,"cf",1.000,1,0.100,329439.000,0.200,152923.000,0.300,33451.000,0.500,18028.000,1.000,10358.000,5.000,1.000
"05/08/07","09:14:05",538385.000,"cf",1.000,1,0.100,331151.000,0.200,147791.000,0.300,31859.000,0.500,17469.000,1.000,10111.000,5.000,4.000
"05/08/07","09:15:05",535161.000,"cf",1.000,1,0.100,332725.000,0.200,143892.000,0.300,30878.000,0.500,17636.000,1.000,10023.000,5.000,7.000
"05/08/07","09:16:05",536839.000,"cf",1.000,1,0.100,333368.000,0.200,144801.000,0.300,30869.000,0.500,17641.000,1.000,10153.000,5.000,7.000
"05/08/07","09:17:05",533794.000,"cf",1.000,1,0.100,332699.000,0.200,142906.000,0.300,30522.000,0.500,17644.000,1.000,10018.000,5.000,5.000
"05/08/07","09:18:05",533228.000,"cf",1.000,1,0.100,332126.000,0.200,142710.000,0.300,30534.000,0.500,17762.000,1.000,10091.000,5.000,5.000
"05/08/07","09:19:05",533620.000,"cf",1.000,1,0.100,332143.000,0.200,142922.000,0.300,30852.000,0.500,17705.000,1.000,9992.000,5.000,6.000
"05/08/07","09:20:05",529917.000,"cf",1.000,1,0.100,331566.000,0.200,140936.000,0.300,30037.000,0.500,17540.000,1.000,9830.000,5.000,8.000
"05/08/07","09:21:05",528029.000,"cf",1.000,1,0.100,330713.000,0.200,139807.000,0.300,30231.000,0.500,17352.000,1.000,9920.000,5.000,6.000
"05/08/07","09:22:05",529527.000,"cf",1.000,1,0.100,330320.000,0.200,141272.000,0.300,30549.000,0.500,17429.000,1.000,9953.000,5.000,4.000
"05/08/07","09:23:05",529630.000,"cf",1.000,1,0.100,331083.000,0.200,140572.000,0.300,30608.000,0.500,17562.000,1.000,9798.000,5.000,7.000
"05/08/07","09:24:05",532630.000,"cf",1.000,1,0.100,330385.000,0.200,143162.000,0.300,31393.000,0.500,17709.000,1.000,9974.000,5.000,7.000
"05/08/07","09:25:05",532539.000,"cf",1.000,1,0.100,331695.000,0.200,142305.000,0.300,31036.000,0.500,17526.000,1.000,9972.000,5.000,5.000
"05/08/07","09:26:05",532340.000,"cf",1.000,1,0.100,331215.000,0.200,142206.000,0.300,31203.000,0.500,17525.000,1.000,10187.000,5.000,4.000
"05/08/07","09:27:05",534621.000,"cf",1.000,1,0.100,331863.000,0.200,142960.000,0.300,31913.000,0.500,17637.000,1.000,10246.000,5.000,2.000
"05/08/07","09:28:05",534609.000,"cf",1.000,1,0.100,332213.000,0.200,143405.000,0.300,31403.000,0.500,17594.000,1.000,9987.000,5.000,7.000
"05/08/07","09:29:05",536064.000,"cf",1.000,1,0.100,332944.000,0.200,143799.000,0.300,31587.000,0.500,17701.000,1.000,10026.000,5.000,7.000
"05/08/07","09:30:05",543306.000,"cf",1.000,1,0.100,335664.000,0.200,146575.000,0.300,32476.000,0.500,18264.000,1.000,10325.000,5.000,2.000
"05/08/07","09:31:05",545770.000,"cf",1.000,1,0.100,336803.000,0.200,147942.000,0.300,32801.000,0.500,17990.000,1.000,10228.000,5.000,6.000
"05/08/07","09:32:05",546578.000,"cf",1.000,1,0.100,335406.000,0.200,149750.000,0.300,33012.000,0.500,18329.000,1.000,10074.000,5.000,7.000
"05/08/07","09:33:05",546914.000,"cf",1.000,1,0.100,334860.000,0.200,150565.000,0.300,33263.000,0.500,17920.000,1.000,10300.000,5.000,6.000
"05/08/07","09:34:05",549529.000,"cf",1.000,1,0.100,337239.000,0.200,151179.000,0.300,32912.000,0.500,17891.000,1.000,10303.000,5.000,5.000
"05/08/07","09:35:05",547724.000,"cf",1.000,1,0.100,338553.000,0.200,148703.000,0.300,32294.000,0.500,17883.000,1.000,10286.000,5.000,5.000
"05/08/07","09:36:05",548427.000,"cf",1.000,1,0.100,338728.000,0.200,148556.000,0.300,32553.000,0.500,17949.000,1.000,10635.000,5.000,6.000
"05/08/07","09:37:05",545025.000,"cf",1.000,1,0.100,336932.000,0.200,147948.000,0.300,31873.000,0.500,17990.000,1.000,10278.000,5.000,4.000
"05/08/07","09:38:05",542701.000,"cf",1.000,1,0.100,336680.000,0.200,146171.000,0.300,31683.000,0.500,18102.000,1.000,10059.000,5.000,6.000
"05/08/07","09:39:05",538995.000,"cf",1.000,1,0.100,336600.000,0.200,143508.000,0.300,31034.000,0.500,17867.000,1.000,9983.000,5.000,3.000
"05/08/07","09:40:05",543516.000,"cf",1.000,1,0.100,339437.000,0.200,145001.000,0.300,31048.000,0.500,17786.000,1.000,10233.000,5.000,11.000
"05/08/07","09:41:05",546663.000,"cf",1.000,1,0.100,339183.000,0.200,147691.000,0.300,31658.000,0.500,18043.000,1.000,10080.000,5.000,8.000
"05/08/07","09:42:05",545142.000,"cf",1.000,1,0.100,338918.000,0.200,147113.000,0.300,31257.000,0.500,17692.000,1.000,10154.000,5.000,8.000
"05/08/07","09:43:05",543196.000,"cf",1.000,1,0.100,337953.000,0.200,146194.000,0.300,31286.000,0.500,17623.000,1.000,10133.000,5.000,7.000
"05/08/07","09:44:05",542093.000,"cf",1.000,1,0.100,339483.000,0.200,144403.000,0.300,30658.000,0.500,17534.000,1.000,10006.000,5.000,9.000
"05/08/07","09:45:05",540677.000,"cf",1.000,1,0.100,339399.000,0.200,142645.000,0.300,30494.000,0.500,18152.000,1.000,9983.000,5.000,4.000
"05/08/07","09:46:05",541054.000,"cf",1.000,1,0.100,338743.000,0.200,143915.000,0.300,30806.000,0.500,17642.000,1.000,9935.000,5.000,13.000
"05/08/07","09:47:05",541097.000,"cf",1.000,1,0.100,339454.000,0.200,142978.000,0.300,30638.000,0.500,17976.000,1.000,10046.000,5.000,5.000
"05/08/07","09:48:05",539634.000,"cf",1.000,1,0.100,339412.000,0.200,141978.000,0.300,30285.000,0.500,17950.000,1.000,10001.000,5.000,8.000
"05/08/07","09:49:05",539929.000,"cf",1.000,1,0.100,339140.000,0.200,142406.000,0.300,30750.000,0.500,17534.000,1.000,10093.000,5.000,6.000
"05/08/07","09:50:05",540253.000,"cf",1.000,1,0.100,338031.000,0.200,143461.000,0.300,30849.000,0.500,17679.000,1.000,10228.000,5.000,5.000
"05/08/07","09:51:05",538962.000,"cf",1.000,1,0.100,337055.000,0.200,143163.000,0.300,31039.000,0.500,17619.000,1.000,10077.000,5.000,9.000
"05/08/07","09:52:05",539562.000,"cf",1.000,1,0.100,339510.000,0.200,141960.000,0.300,30655.000,0.500,17550.000,1.000,9885.000,5.000,2.000
"05/08/07","09:53:05",542032.000,"cf",1.000,1,0.100,340672.000,0.200,143255.000,0.300,30545.000,0.500,17678.000,1.000,9875.000,5.000,7.000
"05/08/07","09:54:05",547110.000,"cf",1.000,1,0.100,341209.000,0.200,146005.000,0.300,31929.000,0.500,17976.000,1.000,9985.000,5.000,6.000
"05/08/07","09:55:05",549865.000,"cf",1.000,1,0.100,341341.000,0.200,147678.000,0.300,32361.000,0.500,18251.000,1.000,10229.000,5.000,5.000
"05/08/07","09:56:05",545361.000,"cf",1.000,1,0.100,337899.000,0.200,146766.000,0.300,32655.000,0.500,17916.000,1.000,10119.000,5.000,6.000
"05/08/07","09:57:05",538136.000,"cf",1.000,1,0.100,335097.000,0.200,143647.000,0.300,31241.000,0.500,17922.000,1.000,10223.000,5.000,6.000
"05/08/07","09:58:05",537939.000,"cf",1.000,1,0.100,336627.000,0.200,142621.000,0.300,30980.000,0.500,17603.000,1.000,10099.000,5.000,9.000
"05/08/07","09:59:05",539412.000,"cf",1.000,1,0.100,337420.000,0.200,143100.000,0.300,31030.000,0.500,17782.000,1.000,10077.000,5.000,3.000
